DO9LL-1 Weather Reports


Display with metric or nautical units.
time (UTC)temp
F
wind
direction
speed
MPH
gust
MPH
rain 1hr
in
rain 24hr
in
rain mn
in
humidity
%
barometer
mb
20260506042217 48 360 0.0 1.0 0.09 0.54 0.50 97 1005.2
20260506041234 48 342 0.0 2.0 0.09 0.52 0.48 97 1005.3
20260506040230 48 305 0.0 2.0 0.08 0.51 0.46 97 1005.3
20260506035227 48 334 1.0 3.0 0.09 0.50 0.45 97 1005.2
20260506034224 48 329 1.0 3.0 0.08 0.48 0.43 97 1005.3
20260506033220 48 286 0.0 2.0 0.09 0.47 0.42 97 1005.4
20260506032218 48 342 0.0 1.0 0.09 0.46 0.41 97 1005.4
20260506031235 48 360 1.0 3.0 0.08 0.44 0.39 97 1005.4
20260506030231 48 310 1.0 2.0 0.09 0.43 0.38 97 1005.6
20260506025233 48 324 0.0 2.0 0.09 0.41 0.36 97 1005.7
20260506024225 49 309 1.0 3.0 0.09 0.40 0.35 97 1005.7
20260506023223 49 313 1.0 2.0 0.09 0.38 0.33 97 1005.8
20260506022218 49 326 1.0 3.0 0.10 0.37 0.32 98 1006.0
20260506021234 49 313 0.0 3.0 0.11 0.36 0.31 98 1005.9
20260506020231 49 296 0.0 4.0 0.11 0.34 0.29 98 1006.1
20260506015228 49 300 0.0 2.0 0.10 0.32 0.27 98 1006.0
20260506014225 49 296 0.0 2.0 0.11 0.31 0.26 98 1006.1
20260506013221 49 344 0.0 2.0 0.10 0.29 0.24 98 1006.0
20260506012220 49 323 1.0 2.0 0.10 0.27 0.22 98 1006.1
20260506011240 49 351 0.0 2.0 0.10 0.25 0.20 98 1006.1
20260506010231 49 337 0.0 2.0 0.09 0.23 0.18 97 1006.2
20260506005230 49 347 0.0 2.0 0.09 0.22 0.17 97 1006.2
20260506004225 49 308 0.0 1.0 0.08 0.21 0.15 97 1006.4
20260506003222 49 325 1.0 3.0 0.08 0.20 0.14 97 1006.3
20260506002220 49 340 0.0 2.0 0.07 0.18 0.12 97 1006.5
20260506001216 49 293 0.0 2.0 0.06 0.16 0.10 97 1006.5
20260506000233 49 341 0.0 1.0 0.06 0.16 0.09 97 1006.6
20260505235230 49 353 1.0 3.0 0.06 0.15 0.08 97 1006.8
20260505234226 49 349 1.0 3.0 0.07 0.14 0.07 97 1006.8
20260505233224 49 349 0.0 2.0 0.06 0.14 0.06 97 1006.9
20260505232220 49 353 1.0 2.0 0.05 0.13 0.05 97 1006.9
20260505231217 49 348 1.0 2.0 0.04 0.12 0.04 97 1007.0
20260505230234 49 358 1.0 2.0 0.03 0.12 0.03 96 1007.1
20260505225231 49 354 1.0 2.0 0.02 0.11 0.02 96 1007.1
20260505224228 49 346 1.0 3.0 0.01 0.09 0.00 96 1007.1
20260505223224 49 354 1.0 3.0 0.01 0.10 0.00 96 1007.2
20260505222220 49 4 1.0 3.0 0.01 0.10 0.00 95 1007.2
20260505221217 49 352 1.0 3.0 0.01 0.10 0.00 95 1007.2
20260505220234 50 357 1.0 2.0 0.01 0.10 0.10 94 1007.3
20260505215230 50 346 1.0 2.0 0.01 0.10 0.10 94 1007.3
20260505214227 50 352 1.0 3.0 0.00 0.09 0.09 93 1007.5
20260505213224 50 7 0.0 2.0 0.00 0.09 0.09 92 1007.5
20260505212220 51 312 1.0 3.0 0.00 0.09 0.09 91 1007.7
20260505211217 51 323 1.0 3.0 0.00 0.09 0.09 91 1007.7
20260505210234 51 352 1.0 3.0 0.00 0.09 0.09 90 1007.7
20260505205230 51 353 0.0 2.0 0.00 0.09 0.09 90 1007.7
20260505204227 51 332 1.0 3.0 0.00 0.09 0.09 90 1007.7
20260505203224 51 328 1.0 3.0 0.00 0.09 0.09 91 1007.7
20260505202221 51 337 0.0 1.0 0.00 0.09 0.09 91 1007.8
20260505201218 51 359 0.0 1.0 0.00 0.09 0.09 91 1007.7
20260505200235 51 314 0.0 2.0 0.00 0.09 0.09 91 1007.7
20260505195232 51 332 0.0 1.0 0.00 0.09 0.09 91 1007.6
20260505194228 51 306 0.0 2.0 0.00 0.09 0.09 90 1007.7
20260505193225 51 310 0.0 2.0 0.00 0.10 0.09 90 1007.6
20260505192222 51 344 0.0 1.0 0.00 0.10 0.09 90 1007.6
20260505191219 51 323 0.0 2.0 0.00 0.10 0.09 90 1007.6
20260505190215 51 351 0.0 2.0 0.00 0.11 0.09 90 1007.6
20260505185232 51 325 1.0 2.0 0.00 0.11 0.09 90 1007.5
20260505184229 51 308 0.0 1.0 0.00 0.12 0.09 91 1007.6
20260505183230 51 312 0.0 2.0 0.00 0.18 0.09 92 1007.6
20260505182223 51 317 0.0 2.0 0.00 0.35 0.09 92 1007.6
20260505181219 51 342 1.0 4.0 0.00 0.48 0.09 92 1007.7
20260505180216 51 342 1.0 4.0 0.00 0.61 0.09 92 1007.7
20260505175232 51 325 1.0 3.0 0.00 0.61 0.09 92 1007.8
20260505174229 51 343 1.0 3.0 0.00 0.61 0.09 93 1007.6
20260505173226 51 338 0.0 2.0 0.00 0.61 0.09 93 1007.7
20260505172223 51 315 1.0 3.0 0.00 0.61 0.09 93 1007.8
20260505171220 50 297 1.0 3.0 0.00 0.61 0.09 93 1007.7
20260505170216 50 346 1.0 3.0 0.00 0.61 0.09 93 1007.8
20260505165233 50 335 0.0 1.0 0.00 0.61 0.09 93 1007.9
20260505164230 50 1 1.0 2.0 0.00 0.61 0.09 93 1007.9
20260505163226 50 278 1.0 4.0 0.00 0.61 0.09 93 1008.0
20260505162223 50 303 1.0 6.0 0.00 0.61 0.09 93 1008.0
20260505161220 51 314 0.0 2.0 0.00 0.61 0.09 92 1008.1
20260505160217 51 295 0.0 3.0 0.00 0.61 0.09 92 1008.1
20260505153227 50 332 0.0 2.0 0.00 0.61 0.09 92 1008.2
20260505152223 51 344 1.0 6.0 0.00 0.61 0.09 92 1008.3
20260505151220 51 337 1.0 2.0 0.00 0.61 0.09 91 1008.5
20260505150218 51 332 0.0 2.0 0.00 0.61 0.09 91 1008.4
20260505140217 51 328 1.0 2.0 0.00 0.61 0.09 92 1008.7
20260505130218 50 351 1.0 3.0 0.00 0.61 0.09 92 1009.1
20260505124230 51 348 1.0 3.0 0.00 0.61 0.09 91 1009.2
20260505123232 51 336 0.0 4.0 0.00 0.61 0.09 91 1009.2
20260505122224 50 324 1.0 3.0 0.00 0.61 0.09 91 1009.3
20260505121221 50 335 1.0 3.0 0.00 0.61 0.09 92 1009.3
20260505120218 50 293 1.0 3.0 0.00 0.61 0.09 92 1009.3
20260505115235 49 323 1.0 3.0 0.00 0.61 0.09 93 1009.4
20260505114232 49 320 1.0 3.0 0.00 0.61 0.09 94 1009.5
20260505113228 49 330 1.0 3.0 0.00 0.61 0.09 95 1009.4
20260505112227 49 2 1.0 2.0 0.00 0.61 0.09 95 1009.5
20260505111222 49 338 1.0 4.0 0.00 0.61 0.09 95 1009.6
20260505110219 49 340 0.0 2.0 0.00 0.61 0.09 95 1009.7
20260505101223 49 329 1.0 3.0 0.00 0.61 0.09 95 1009.8
20260505100220 48 328 1.0 3.0 0.00 0.61 0.09 95 1009.9
20260505095217 49 306 1.0 3.0 0.00 0.61 0.09 95 1009.9
20260505094234 49 354 1.0 2.0 0.00 0.61 0.09 95 1009.9
20260505093230 48 301 0.0 1.0 0.00 0.61 0.09 96 1009.9
20260505092228 48 325 0.0 3.0 0.00 0.61 0.09 96 1010.0
20260505091225 49 341 1.0 4.0 0.00 0.61 0.09 96 1010.0
20260505090221 48 348 1.0 3.0 0.00 0.61 0.09 96 1009.9
20260505085219 48 345 1.0 6.0 0.00 0.61 0.09 96 1009.9
20260505084235 48 347 1.0 3.0 0.00 0.61 0.09 96 1010.0
20260505083231 48 329 1.0 3.0 0.00 0.61 0.09 96 1009.8
20260505082228 48 323 1.0 3.0 0.00 0.61 0.09 96 1009.8
20260505081225 48 321 0.0 1.0 0.00 0.61 0.09 96 1009.9
20260505080222 48 321 0.0 2.0 0.00 0.61 0.09 96 1010.0
20260505075226 49 317 0.0 2.0 0.00 0.61 0.09 97 1009.9
20260505074216 48 327 0.0 1.0 0.00 0.61 0.09 97 1009.9
20260505073233 49 323 0.0 3.0 0.00 0.61 0.09 97 1010.1
20260505072230 48 347 0.0 3.0 0.00 0.61 0.09 97 1009.9
20260505071227 48 349 1.0 2.0 0.00 0.61 0.09 97 1010.1
20260505070223 49 312 0.0 2.0 0.00 0.61 0.09 97 1010.1
20260505065219 49 318 0.0 1.0 0.00 0.61 0.09 97 1010.0
20260505064217 48 316 0.0 2.0 0.01 0.61 0.09 97 1010.1
20260505063233 48 313 0.0 2.0 0.01 0.61 0.09 97 1010.1
20260505062230 48 330 1.0 3.0 0.01 0.61 0.09 97 1010.1
20260505061227 48 321 0.0 2.0 0.02 0.61 0.09 97 1010.1
20260505060224 48 351 1.0 1.0 0.02 0.61 0.09 97 1010.1
20260505055220 48 306 0.0 1.0 0.03 0.61 0.09 97 1009.9
20260505054217 48 314 0.0 2.0 0.02 0.60 0.08 97 1009.9
20260505053234 49 348 1.0 4.0 0.02 0.60 0.08 97 1009.8
20260505052231 49 313 0.0 2.0 0.02 0.60 0.08 97 1009.7
20260505051228 49 345 0.0 2.0 0.01 0.59 0.07 97 1009.9
20260505050226 49 342 0.0 2.0 0.02 0.59 0.07 97 1009.9